View from above orbital plane
|
View from above satellite
|
Ground track
|
The orbit data is extracted from the following two-line orbital elements,
1 22803U 93059B 21015.70043190 -.00000228 00000-0 -89501-4 0 9995
2 22803 70.9909 11.9715 0017980 200.6404 159.3995 14.16831212413622
Epoch (UTC): | 15 January 2021 16:48:37 |
Eccentricity: | 0.0017980 |
inclination: | 70.9909° |
perigee height: | 823 km |
apogee height: | 849 km |
right ascension of ascending node: | 11.9715° |
argument of perigee: | 200.6404° |
revolutions per day: | 14.16831212 |
mean anomaly at epoch: | 159.3995° |
orbit number at epoch: | 41362 |
The dashed part of the orbit path shows where the satellite is in the earth's shadow,
|
|